User: anonymous   Login
Location: NJAA Observatory
(40.6819°N, 74.8979°W)
Time: 17:30:07
(UTC-05:00)
Language:

Cosmos 220 Rocket - Orbit

View from above orbital plane
View from above orbital plane
View from above satellite
View from above satellite

Ground track
Ground track

The orbit data is extracted from the following two-line orbital elements,

1 03230U 68040B   14328.14673675  .00002580  00000-0  28039-3 0  4189
2 03230 074.0377 314.8384 0030437 158.1039 202.1450 14.88339692496144
Epoch (UTC): 24 November 2014 03:31:18
Eccentricity: 0.0030437
inclination: 74.0377°
perigee height: 582 km
apogee height: 624 km
right ascension of ascending node: 314.8384°
argument of perigee: 158.1039°
revolutions per day: 14.88339692
mean anomaly at epoch: 202.1450°
orbit number at epoch: 49614

The dashed part of the orbit path shows where the satellite is in the earth's shadow,  

DLR